Temp
8 8 8 8 7 7 7 7 6 6 5 8 9 9 8 8 8 7 7 7 7 7 7 7 6 5 5 5 5 5 6 6 7 8 9 9 10 11
8 8 8 8 7 7 7 7 7 6 5 7 8 8 8 8 8 7 7 7 7 7 7 7 6 6 6 4 4 4 4 5 6 7 8 9 9 11
8 8 8 7 7 7 7 7 7 6 5 6 7 7 7 7 7 7 7 7 7 7 7 7 6 6 6 5 3 4 4 4 5 6 7 8 9 10
8 7 8 7 7 7 7 7 6 6 5 4 5 6 7 7 7 7 7 7 7 7 6 6 6 6 6 5 4 4 4 4 3 5 7 7 8 9
7 7 7 7 7 7 6 6 6 6 6 4 4 5 5 6 6 6 7 7 7 6 6 6 6 5 5 5 4 4 4 3 2 4 5 7 8 8
6 6 6 6 6 6 6 6 6 5 5 5 4 5 5 5 5 5 6 6 6 6 6 6 6 5 5 4 4 4 4 3 2 2 4 6 7 7
6 6 5 5 5 5 5 5 5 4 4 4 4 4 4 5 5 5 4 5 5 6 6 5 5 5 5 5 4 4 4 3 3 2 2 3 5 5
5 5 5 5 5 5 5 4 4 3 3 3 3 3 3 4 5 4 4 3 2 5 4 4 4 5 5 4 4 4 3 3 3 3 3 3 4 4
4 4 4 4 4 4 4 4 4 4 4 3 3 3 3 4 4 4 4 3 3 4 4 3 3 3 4 4 4 4 3 3 3 3 2 2 3 4
4 4 3 4 4 3 3 3 4 4 4 4 3 4 3 4 3 3 3 3 3 3 3 2 3 3 3 4 4 4 3 2 2 2 2 2 2 2
3 3 3 3 3 3 3 3 3 3 4 4 4 3 3 3 3 3 2 2 2 2 2 2 2 3 3 3 3 3 3 2 2 1 1 1 1 1
3 3 3 2 2 2 2 2 2 2 2 3 4 4 3 3 3 2 2 2 1 1 3 2 3 3 2 3 3 3 2 2 2 1 1 0 -0 1
2 2 2 2 1 0 1 1 0 1 1 1 1 2 2 2 2 1 1 1 1 1 2 2 2 2 3 2 2 3 2 2 1 1 1 1 -0 -0
1 1 1 0 -0 -0 0 0 0 -0 -0 -1 -1 -1 0 1 0 0 0 0 0 1 1 2 2 2 2 0 1 2 2 2 2 2 1 0 0 -0
1 1 0 0 -0 0 0 -0 -0 -0 -1 -1 -1 -1 -1 -0 0 1 1 1 1 2 1 1 1 1 1 1 1 1 1 1 1 1 1 0 0 -0
0 -0 -0 -0 -0 -0 -0 -0 -1 -1 -1 -1 -1 -1 -1 -1 -1 0 -0 0 0 1 2 2 2 1 0 0 1 -0 0 0 0 0 0 0 -0 -0
-0 -1 -1 -1 -1 -1 -1 -1 -1 -1 -1 -1 -1 -1 -1 -1 -1 -1 -1 -1 -1 -0 1 1 1 1 0 -0 -1 -0 -1 -1 -0 -0 -1 -1 -0 0
-1 -1 -1 -1 -2 -2 -2 -1 -1 -1 -1 -1 -1 -1 -1 -1 -1 -1 -1 -1 -1 -1 -0 0 0 -1 -1 -1 -1 -1 -1 -1 -1 -1 -1 -2 -2 -1
-1 -2 -2 -3 -3 -3 -3 -3 -3 -2 -2 -2 -2 -1 -1 -2 -2 -2 -1 -2 -1 -1 -1 -0 -1 -1 -1 -1 1 0 -1 -1 -2 -3 -3 -3 -3 -2
-2 -3 -3 -3 -3 -3 -3 -3 -3 -3 -3 -2 -2 -1 -1 -2 -2 -2 -2 -2 -2 -1 -1 -1 -1 -1 -1 -0 -0 1 0 -0 -2 -3 -3 -4 -3 -3
-4 -4 -4 -4 -4 -4 -4 -4 -4 -4 -4 -3 -3 -3 -3 -2 -2 -3 -2 -2 -1 -1 -1 -1 -1 -1 -1 -1 -2 -2 -1 -1 -0 -1 -1 -4 -4 -4
-3 -3 -4 -4 -4 -4 -5 -5 -5 -4 -3 -3 -3 -3 -3 -3 -3 -3 -2 -2 -2 -2 -2 -1 -1 -1 -1 -2 -1 -1 -1 -2 -2 -2 -2 -2 -2 -6
-3 -3 -4 -4 -4 -4 -5 -5 -5 -4 -4 -3 -3 -3 -3 -3 -3 -3 -3 -3 -2 -2 -2 -2 -2 -2 -2 -2 -2 -2 -2 -2 -2 -2 -3 -3 -3 -3
Height
820 820 819 818 818 818 818 818 818 817 814 808 807 805 805 804 803 800 798 795 793 791 790 788 786 784 781 778 774 771 768 765 762 758 755 752 746 743
818 818 817 816 816 816 815 815 815 815 814 807 805 804 803 801 800 798 796 793 791 789 787 786 785 783 781 778 775 771 768 765 762 759 757 754 750 746
813 814 814 813 812 812 812 812 812 811 809 804 803 801 799 798 797 795 793 791 789 787 785 783 782 780 779 777 774 771 768 765 763 760 758 756 753 749
810 810 809 810 809 809 809 808 808 807 806 802 799 798 796 795 793 791 789 788 786 784 782 781 779 778 777 776 774 772 768 765 763 761 759 758 755 753
809 808 807 806 806 805 805 804 803 802 801 800 797 795 792 791 789 787 786 784 782 781 779 778 776 775 775 774 772 771 769 766 763 762 761 760 758 757
807 805 804 803 803 802 802 800 799 798 798 796 794 792 790 788 787 784 781 779 777 776 775 773 772 771 772 772 771 769 768 766 763 762 762 762 761 760
806 805 804 802 800 799 798 797 796 794 793 792 791 789 786 784 783 781 779 776 774 772 769 770 770 770 770 769 769 768 767 765 764 762 762 762 761 762
804 803 802 800 797 796 795 794 792 790 789 788 786 784 783 782 780 778 775 773 772 769 768 768 768 766 766 765 765 765 765 765 763 762 762 761 760 760
804 801 799 798 797 794 792 791 789 788 786 784 783 781 778 777 776 774 773 772 769 767 766 762 763 761 761 760 760 760 761 762 762 762 761 761 761 760
804 801 799 797 795 794 791 789 787 785 783 781 779 777 776 773 772 770 768 767 765 764 764 759 757 755 756 755 755 755 756 759 759 760 760 760 761 761
802 800 798 795 793 791 789 787 785 783 782 778 775 773 771 770 769 767 764 764 760 759 759 757 754 753 751 749 749 750 751 754 756 758 759 759 760 760
799 798 795 793 791 788 786 784 781 778 777 774 771 768 767 765 764 763 762 760 758 755 752 754 752 753 751 748 747 746 748 751 753 755 756 757 758 758
796 794 792 790 788 785 783 781 778 776 773 771 768 764 762 761 759 757 756 755 754 751 750 751 748 749 750 749 748 748 747 749 750 752 754 754 756 756
794 791 789 786 785 783 780 778 775 772 769 767 763 761 759 756 754 752 751 749 748 746 747 746 745 744 744 745 747 747 747 747 747 747 749 751 752 754
791 789 786 783 781 778 776 774 772 769 766 763 760 757 757 755 750 747 745 744 741 740 740 741 740 740 740 739 740 741 743 743 743 744 745 746 748 749
786 784 781 779 776 773 771 769 768 766 763 760 758 754 751 749 747 744 740 737 735 733 734 734 734 735 734 734 735 735 736 740 738 739 741 742 743 745
780 778 776 773 770 767 764 762 762 761 759 756 752 750 747 744 743 739 736 734 730 728 728 728 728 728 729 729 729 730 730 731 733 734 736 736 736 738
775 772 770 767 763 761 759 756 755 753 752 750 746 744 741 739 736 734 731 729 726 724 722 722 723 723 723 722 723 723 723 724 724 726 728 729 728 728
772 768 764 761 758 756 753 751 748 747 745 743 741 738 736 733 731 728 726 724 721 718 716 716 716 717 717 715 715 715 717 716 717 719 720 722 722 721
764 761 758 756 752 750 747 744 742 739 738 736 733 731 729 727 725 722 719 717 715 713 710 709 708 709 709 708 709 709 709 711 712 713 714 715 716 717
758 756 753 750 747 745 741 738 735 732 730 729 726 724 722 720 717 715 712 710 708 706 703 702 702 702 702 704 704 702 704 706 707 707 709 711 713 713
749 748 746 743 741 738 735 732 729 726 724 722 720 717 715 713 710 708 705 703 701 700 698 696 696 696 696 696 696 697 697 700 702 702 703 706 707 708
743 741 738 735 733 730 728 725 722 718 717 714 712 710 707 704 702 700 698 697 694 692 691 690 689 689 689 690 691 692 691 692 694 696 697 698 700 702
Wind_Speed
11 11 11 10 12 12 13 10 7 3 3 3 3 3 10 20 19 17 17 14 12 10 10 12 14 13 15 15 17 14 15 17 18 19 18 16 17 12
11 12 12 11 12 12 12 13 12 12 3 4 8 20 24 22 18 17 17 15 13 11 10 10 13 13 14 13 14 16 12 14 14 16 17 17 15 11
10 12 13 12 13 12 13 14 15 16 10 18 22 24 24 21 20 18 18 15 14 13 12 12 12 14 15 11 11 15 14 11 12 11 12 14 17 15
11 11 13 13 13 13 13 15 16 17 17 17 22 25 24 23 22 21 17 14 16 14 13 14 14 13 13 11 11 13 14 10 8 7 7 8 14 17
11 12 14 13 14 14 14 15 16 16 17 18 19 23 24 23 22 20 19 19 18 15 15 15 15 15 13 12 10 12 12 9 8 4 3 3 5 12
11 11 11 12 14 15 15 15 15 16 17 18 20 22 23 22 19 20 23 21 21 18 18 17 14 11 12 11 10 10 10 10 6 6 1 2 2 2
11 12 12 12 12 13 14 17 16 17 18 19 20 19 21 22 20 17 19 22 22 18 12 6 4 9 11 11 11 11 8 7 6 5 2 3 4 4
13 13 13 12 12 12 13 14 14 16 17 16 17 16 19 22 22 20 16 12 4 6 6 17 19 19 13 13 14 14 11 7 5 5 3 2 2 3
12 13 13 13 13 13 12 13 13 12 13 16 17 17 21 23 21 20 19 17 15 19 16 12 18 23 16 11 13 15 15 12 8 6 5 3 3 5
10 11 13 14 14 15 16 15 15 14 13 13 15 20 20 21 20 20 20 19 20 20 16 8 11 21 20 13 13 13 15 14 12 9 7 6 5 5
9 11 14 15 14 14 16 19 21 20 17 16 15 16 17 16 17 17 18 14 12 15 15 17 8 15 19 13 12 13 14 15 15 11 9 9 8 7
14 14 15 15 15 15 17 19 22 25 24 23 21 20 17 16 16 16 20 16 11 7 12 13 11 6 5 4 6 4 10 11 13 13 10 11 10 10
16 18 18 17 16 18 16 17 16 20 22 21 24 24 22 18 18 15 18 19 19 20 12 11 9 9 6 5 9 5 5 12 14 13 14 13 12 12
16 19 19 17 18 18 18 16 15 16 15 19 21 21 23 22 23 16 16 18 19 27 26 21 17 17 13 6 6 7 10 9 12 15 16 15 14 13
17 18 18 19 19 20 18 15 14 15 18 18 17 18 20 25 22 21 18 18 19 19 21 24 25 24 19 15 8 9 6 5 8 13 16 18 18 18
19 18 20 20 21 21 21 19 16 14 14 16 19 21 22 23 25 21 21 20 20 21 18 20 20 22 24 24 22 19 19 13 5 8 15 18 21 21
20 22 23 24 25 26 25 23 22 20 18 17 18 21 22 22 24 25 22 21 17 15 19 18 18 20 24 23 17 23 21 21 22 22 24 27 24 21
20 24 25 25 24 24 24 25 25 23 23 23 21 22 22 23 23 24 22 19 18 19 19 20 17 14 16 21 27 24 20 23 24 22 21 23 27 30
22 24 23 22 23 23 24 24 26 27 25 24 26 23 23 22 22 21 19 18 20 19 21 23 18 16 5 6 11 14 24 24 23 19 21 21 21 23
20 22 22 22 24 24 25 25 27 27 26 26 26 24 22 20 19 21 19 18 17 19 19 21 19 19 16 10 7 14 16 22 20 19 19 19 20 19
17 20 22 24 24 24 24 26 27 27 25 23 23 23 22 21 20 22 22 21 22 19 17 18 23 23 22 20 9 16 19 19 20 21 16 14 11 9
20 20 23 24 24 25 24 24 24 23 23 22 23 21 22 23 22 22 21 20 20 19 19 21 22 23 23 17 16 17 19 18 19 21 21 19 8 4
22 23 24 25 26 26 25 24 24 26 25 25 24 25 25 24 23 23 22 22 21 19 18 18 18 20 19 15 14 17 20 21 20 18 24 22 22 22
Wind_Direction
281 283 281 284 276 271 266 269 255 298 297 281 291 292 315 322 327 327 330 336 333 329 326 333 343 349 353 356 359 356 360 8 12 13 18 18 31 46
287 286 285 291 286 278 271 263 258 249 247 273 277 293 304 311 317 320 324 322 322 322 303 319 327 336 341 348 354 2 3 8 15 16 17 23 23 46
286 288 288 290 288 283 278 272 265 259 256 279 285 297 304 309 313 314 318 315 316 323 304 301 303 314 332 328 344 355 2 7 14 26 32 32 35 38
296 288 286 288 284 285 281 276 274 274 267 275 289 296 301 308 309 313 315 313 316 312 317 308 301 298 316 326 313 334 355 0 13 38 40 58 47 50
309 302 297 293 289 288 286 280 280 280 278 272 282 295 300 306 310 310 311 309 309 305 305 305 300 294 292 308 306 319 347 353 9 66 67 80 78 70
318 309 304 299 296 295 291 288 289 287 285 280 280 286 294 304 305 306 311 315 310 304 299 298 298 296 287 288 288 297 328 348 355 27 105 154 181 115
336 330 323 314 306 298 296 297 296 292 288 285 282 282 283 290 296 303 303 311 313 308 311 317 310 323 313 295 271 277 293 331 335 351 65 192 199 191
345 343 338 332 322 312 304 296 291 292 292 285 281 274 280 289 295 295 294 300 315 295 316 306 307 305 300 299 275 267 267 275 304 313 303 223 192 168
356 355 356 356 346 339 335 326 319 309 291 282 275 277 282 291 294 291 288 281 269 282 290 297 303 304 308 296 276 256 249 249 256 269 268 241 197 183
357 359 358 358 1 355 347 343 338 334 327 312 298 296 294 293 286 285 284 285 283 280 275 272 284 299 306 297 274 256 240 238 232 245 243 233 216 193
340 341 343 339 339 336 332 329 327 326 332 330 319 306 301 298 290 285 275 273 283 282 272 250 267 303 307 299 264 251 236 223 225 223 223 225 223 216
338 335 337 333 329 330 328 323 318 314 318 312 310 310 312 302 285 272 272 262 253 292 270 225 258 274 307 324 359 271 225 211 218 224 223 222 224 227
330 331 332 333 329 326 324 317 313 313 312 311 314 307 309 312 313 291 268 264 259 251 251 249 229 209 208 293 319 317 234 219 221 220 221 224 225 233
325 326 327 328 321 322 319 315 315 317 314 314 315 318 323 319 318 309 293 287 269 259 262 260 245 237 231 223 242 274 291 269 240 236 221 220 223 233
318 317 315 318 320 323 325 315 312 310 307 308 311 308 308 310 314 314 296 289 285 282 260 253 257 254 242 236 230 243 260 256 264 256 233 230 229 224
316 312 312 309 310 312 316 320 317 314 311 305 306 307 311 309 311 315 315 302 293 284 272 259 256 252 249 248 246 247 256 239 250 256 252 250 244 241
309 305 303 304 305 306 307 307 310 306 299 303 302 301 302 304 305 308 303 308 274 267 277 276 262 255 252 248 239 253 253 253 256 257 259 264 257 249
299 293 293 295 294 296 300 301 303 299 296 294 299 297 295 296 293 297 296 287 278 269 257 267 269 253 252 255 247 247 251 255 263 259 255 253 261 255
286 286 288 290 292 292 292 291 292 296 297 292 287 290 292 289 288 283 283 288 282 267 257 257 248 230 228 244 259 245 236 242 250 246 253 247 248 261
285 287 288 289 291 291 291 291 293 294 293 291 286 283 285 279 285 283 277 274 273 277 258 246 232 229 227 239 238 259 249 246 241 234 244 254 256 262
294 292 291 291 291 291 290 289 288 287 288 286 278 275 276 272 272 279 271 274 274 272 264 252 247 250 245 249 255 258 255 249 251 249 248 232 232 245
283 285 288 288 287 288 289 285 284 282 279 285 280 274 273 271 271 277 273 273 275 269 269 273 269 256 237 222 237 247 261 261 255 254 249 241 213 211
283 289 286 288 286 288 288 280 274 274 275 279 280 275 275 268 267 274 270 278 269 269 266 264 258 244 228 224 245 256 245 244 256 242 238 244 239 239